Regional Weather Roundup
Issued by NWS Charleston, SC

Current Version | Previous Version | Graphics & Text | Print | Product List | Glossary On
Versions: 1 2 3 4 5 6 7 8 9 10 11 12 13 14 15 16 17 18 19 20 21 22 23 24 25 26 27 28 29 30 31 32 33 34 35 36 37 38 39 40 41 42 43 44 45 46 47 48 49 50
000
ASUS42 KCHS 221910
RWRCHS
REGIONAL WEATHER ROUNDUP
NATIONAL WEATHER SERVICE CHARLESTON SC
300 PM EDT TUE JUL 22 2014

NOTE: "FAIR" INDICATES FEW OR NO CLOUDS BELOW 12,000 FEET WITH NO
SIGNIFICANT WEATHER AND/OR OBSTRUCTIONS TO VISIBILITY.

NOT ALL STATIONS ARE QUALITY CONTROLLED BY THE NATIONAL
WEATHER SERVICE. USE DATA WITH CAUTION...ESPECIALLY
DEWPOINT OBSERVATIONS.

SCZ027-030-031-034>040-042>050-222000-
...SOUTH CAROLINA...

CITY           SKY/WX    TMP DP  RH WIND       PRES   REMARKS
N CHARLESTON   LGT RAIN  85  73  67 SE8       30.10R HX  91
WATERFRONT PRK   N/A     81 N/A N/A E36         N/A
FORT JOHNSON   NOT AVBL
MOUNT PLEASANT FAIR      84  73  70 SE5       30.10R HX  91
JOHNS ISLAND   MOCLDY    84  64  51 E9        30.10R
PINOPOLIS        N/A     82  73  74 SW6       30.02R
MONCKS CORNER    N/A     86  77  74 CALM      30.09S HX  97
SUMMERVILLE    FAIR      88  77  70 SE3       30.10R HX 100
BEAUFORT MCAS  PTSUNNY   90  73  57 VRB3      30.07F HX  98
BEAUFORT ARPT  CLOUDY    84  77  79 SE6       30.08R HX  94
HILTON HEAD IS PTSUNNY   84  75  74 SE5       30.09F HX  92
GEORGETOWN     NOT AVBL
WALTERBORO     PTCLDY    88  68  51 S6        30.08S HX  91
ORANGEBURG     MOSUNNY   86  74  67 E10       30.08F HX  94
BARNWELL       FAIR      90  73  58 SE6       30.08F HX  98
AIKEN          CLOUDY    86  75  70 SE6       30.12S HX  95
MANNING        MOCLDY    81 N/A N/A MISG      30.09S
KINGSTREE      NOT AVBL
COLUMBIA       PTSUNNY   89  71  55 MISG      30.08F HX  95
SUMTER         MOSUNNY   83  75  77 NE8       30.09S HX  90
FLORENCE       MOSUNNY   88  73  61 E7        30.10F HX  95
MYRTLE BEACH   TSTM      79  73  83 VRB6      30.11S
N MYRTLE BEACH PTSUNNY   86  75  69 S7        30.09S HX  95

$$

GAZ063-065-086>088-099>101-113>116-118-119-134-136>141-150-222000-
...GEORGIA...

CITY           SKY/WX    TMP DP  RH WIND       PRES   REMARKS
SAVANNAH ARPT  PTSUNNY   89  71  55 VRB3      30.07F HX  95
HUNTER AAF     CLOUDY    87  72  61 E2        30.06F HX  92
FORT STEWART   MOSUNNY   88  71  57 NE8       30.06F HX  94
STATESBORO     NOT AVBL
SYLVANIA       PTCLDY    87  75  68 CALM      30.09S HX  95
CLAXTON        MOCLDY    88  73  62 CALM      30.07F HX  96
THOMSON        CLOUDY    83  77  81 CALM      30.14F HX  92
AUGUSTA-BUSH   PTSUNNY   87  70  56 S5        30.08F HX  92
AUGUSTA-DANIEL MOSUNNY   83  73  72 CALM      30.10S
SWAINSBORO     MOCLDY    88  73  62 CALM      30.08F HX  96
VIDALIA          N/A     86  72  62 CALM      30.07F HX  92
ALMA           CLOUDY    85  69  58 E7        30.06F
WAYCROSS       PTSUNNY   92  71  50 SE5       30.05F HX  99
JESUP          NOT AVBL
BRUNSWICK      PTSUNNY   88  72  58 CALM      30.07F HX  94
SAINT SIMONS   SUNNY     85  73  67 E12       30.08F HX  91

$$

SCZ027-028-034-036>038-045-046-048>050-GAZ119-141-222000-
...LAKE AND SUPPLEMENTAL COASTAL OBSERVATIONS...

STATION/POSITION TIME  TEMP    WIND        PRES    WAVE   SWELL
                       AIR SEA DIR/SP/G            HT/PER HT/PER/DIR
                 (UTC) (F)     (DEG/KT/KT) (MB)    (FT/S) (FT/S/D)
UPR LAKE MARION  NOT AVBL
WINYAH BAY       1800   78     270/  4     1019.0S
LAKE MURRAY      1800   82     120/  3/  4 1018.6F
ACE BASIN NERRS  1800   89     160/  1     1019.0S
FORT PULASKI     1900   83      70/  6/  7 1018.8S
SAPELO ISLAND    1800   87     100/  4     1020.0S

$$

ANZ835-935-AMZ111-154-330-350-352-354-374-450-454-472-222000-
...C-MAN AND BUOY OBSERVATIONS...

STATION/POSITION TIME  TEMP    WIND        PRES    WAVE   SWELL
                       AIR SEA DIR/SP/G            HT/PER HT/PER/DIR
                 (UTC) (F)     (DEG/KT/KT) (MB)    (FT/S) (FT/S/D)
FOLLY BEACH CMAN 1800   79     100/  8/  9 1019.5F
BUOY 41004       1900   79 83  120/  4/  6 1019.4R   3/ 8   3/ 8
BUOY 41008       1900   81 85   80/  6/  8 1018.6F   2/ 7   2/130/ 7
5E ST. MARYS GA  1900      85                N/A     2/ 7
FRYING PAN BUOY  NOT AVBL
BUOY 41025       1900          VRB 17/ 19  1019.9R   4/ 5   2/320/14
CAPE LOOKOUT NC  1800   77     170/ 11/ 12 1019.8F
BUOY 41002       1817   82 83  190/ 12/ 14 1021.9F   4/ 7   3/140/ 7
BUOY 41010       1900   80 83  180/ 17/ 19 1018.8R   5/ 6   2/140/ 8
BUOY 41012       NOT AVBL
ST AUGUSTINE FL  1900   81      50/ 11/ 12 1018.9F
CAPERS NEARSHORE 1800   79     110/  4/  6   N/A
FRIPP NEARSHORE  NOT AVBL


$$



USA.gov is the U.S. government's official web portal to all federal, state and local government web resources and services.